Regional Weather Roundup
Issued by NWS

Home | Current Version | Previous Version | Graphics & Text | Print | Product List | Glossary On
Versions: 1 2 3 4 5 6 7 8 9 10 11 12 13 14 15 16 17 18 19 20 21 22 23 24 25 26 27 28 29 30 31 32 33 34 35 36 37 38 39 40 41 42 43 44 45 46 47 48 49 50
000
ASUS45 KBOU 290007
RWRCO

WEATHER ROUNDUP FOR COLORADO
NATIONAL WEATHER SERVICE DENVER/BOULDER CO
600 PM MDT SAT MAR 28 2015

NOTE: "FAIR" INDICATES FEW OR NO CLOUDS BELOW 12000 FEET WITH NO
SIGNIFICANT WEATHER AND/OR OBSTRUCTIONS TO VISIBILITY.

COZ001>005-013-030-031-290100-
...NORTHWEST COLORADO...

CITY           SKY/WX    TMP DP  RH WIND       PRES   REMARKS
CRAIG          MOSUNNY   67  22  18 W23G30    30.03F
HAYDEN         MOSUNNY   66  19  16 W23G37    30.05S
MEEKER         PTSUNNY   70  22  16 W10       30.07S
MOUNT WERNER   NOT AVBL
STEAMBOAT SPGS MOSUNNY   63  22  21 SW17G28   30.06S
WALDEN         MOSUNNY   59  19  21 W26G33    30.11R
$$

COZ006>008-011-290100-
...WEST CENTRAL VALLEYS...

CITY           SKY/WX    TMP DP  RH WIND       PRES   REMARKS
GRAND JUNCTION SUNNY     76  21  12 W16G23    30.02F
MONTROSE       SUNNY     74  17  11 NW9       30.09S
EAGLE          MOSUNNY   70  21  16 SW18      30.10S
RIFLE          MOSUNNY   73  22  14 SW21      30.04S
DELTA          SUNNY     79  19  10 NW6       30.05S
NUCLA          NOT AVBL
$$

COZ017>023-064>068-290100-
...SOUTHWEST COLORADO...

CITY           SKY/WX    TMP DP  RH WIND       PRES   REMARKS
DURANGO        SUNNY     68  17  14 W18G25    30.15F
CORTEZ         SUNNY     72  14  11 W10       30.14F
PAGOSA SPRINGS SUNNY     66  12  12 SW15G28   30.19S
TELLURIDE      MOSUNNY   59  14  17 W10G18    30.30S
WOLF CREEK PAS PTSUNNY   41  19  42 SW13G23   30.44S
$$

COZ009-010-012-014-032>034-037-058>063-290100-
...CENTRAL COLORADO...

CITY           SKY/WX    TMP DP  RH WIND       PRES   REMARKS
ASPEN          MOSUNNY   62  19  19 SW8       30.16S
BUENA VISTA    MOSUNNY   63  13  14 W8G23     30.16S
COPPER MTN     PTSUNNY   45  12  26 W16       30.37R
BERTHOUD PASS  FAIR      36  30  80 W31G45    30.34F
COTTONWOOD PAS MOSUNNY   55   5  13 W15G24    30.25F
GUNNISON       SUNNY     63  18  17 W9        30.21S
KREMMLING      PTSUNNY   66  18  15 W17       30.12S
LEADVILLE      MOSUNNY   49  16  26 W12       30.25S
SALIDA         MOSUNNY   67  10  11 W15G28    30.21R
SUNLIGHT       MOSUNNY   46  25  42 CALM      30.35F
WILKERSON PASS SUNNY     46  12  25 SW7G21    30.33F
$$

COZ069>075-290100-
...SAN LUIS VALLEY/SANGRE DE CRISTO MOUNTAINS...

CITY           SKY/WX    TMP DP  RH WIND       PRES   REMARKS
ALAMOSA        MOSUNNY   69  11  10 VRB7      30.12F
LA VETA PASS   SUNNY     52  18  25 SW7G23    30.28S
SAGUACHE       SUNNY     64  16  15 NW18G25   30.16F
$$

COZ035-036-038>040-290100-
...NORTHERN COLORADO FRONT RANGE...

CITY           SKY/WX    TMP DP  RH WIND       PRES   REMARKS
DENVER INTL AP MOSUNNY   75  18  11 W22       29.93R
DMNS CITY PARK   N/A     75  18  11 NW12      29.93S
AURORA         MOSUNNY   74  22  14 NW17      29.95S
FRONT RANGE AP MOSUNNY   75  23  14 W21G28    29.94
ERIE MUNI ARPT SUNNY     76  17  10 NW9       29.92S
BOULDER MUN AP SUNNY     75  21  13 W3G20     29.92F
CENTENNIAL     MOSUNNY   73  16  11 W12       29.96F
BROOMFIELD     MOSUNNY   75  21  13 W14       29.97R
FORT COLLINS   SUNNY     75  25  15 W15G22    29.90S
LONGMONT       SUNNY     78  22  12 W13       29.92F
$$

COZ041-046-047-076>085-087-088-290100-
...PIKES PEAK/PALMER DIVIDE AND SOUTHERN FOOTHILLS...

CITY           SKY/WX    TMP DP  RH WIND       PRES   REMARKS
COLO. SPRINGS  MOSUNNY   74   9   8 NW20G25   29.99S
A. F. ACADEMY  SUNNY     71   8   8 W16       30.01S
ELLICOTT       MOSUNNY  N/A N/A N/A SW17      29.98F
FALCON         MOSUNNY   72  10   9 W17       30.04S
FORT CARSON    MOSUNNY   75  20  12 W10       29.95F
LIMON          SUNNY     72  19  13 S15       29.95S
MONUMENT HILL  MOSUNNY   68  12  11 NW13      30.04S
TRINIDAD       SUNNY     75  19  12 CALM      30.01S
$$

COZ042>045-048>051-090-091-290100-
...NORTHEAST COLORADO...

CITY           SKY/WX    TMP DP  RH WIND       PRES   REMARKS
GREELEY ARPT   SUNNY     79  21  11 W17       29.87S
AKRON          SUNNY     77  23  13 W13       29.87F
BURLINGTON     SUNNY     78  19  11 SW10      29.90F
WRAY           SUNNY     82  21  10 SW8       29.84S
STERLING       SUNNY     77  27  15 W8        29.81F
HOLYOKE        NOT AVBL
FORT MORGAN    SUNNY    N/A N/A N/A W10       29.87F
$$

COZ086-089-092>099-290100-
...SOUTHEAST COLORADO...

CITY           SKY/WX    TMP DP  RH WIND       PRES   REMARKS
PUEBLO         SUNNY     80  15   8 SW12      29.90F
LA JUNTA       SUNNY     81  20  10 S7        29.91F
LAMAR          SUNNY     81  22  11 SW9       29.89F
SPRINGFIELD      N/A     77  20  12 S8        29.95F
$$


USA.gov is the U.S. government's official web portal to all federal, state and local government web resources and services.